Вернуться в каталог

COSMOS 2251 DEB

АктивенVLEO
NORAD 36000·DEBRIS·🇷🇺 Russia

Запущен Jun 16, 1993 с Plesetsk Cosmodrome

Loading…

Ближайшие Пролёты (ближайшие 24 часа)

TLE

УстаревающийSource: Space-Track

Эпоха: Sep 11, 2026, 08:19 UTC

1 36000U 93036AWS 26254.34712166  .00022920  00000-0  16180-2 0  9992
2 36000  73.9815 253.1274 0031577 295.5743  64.2183 15.04462493642516

Отслеживайте COSMOS 2251 DEB в реальном времени с AllMySat

Download on the App Store